This is the latest recevied weather packets stored in our database for station/object DL6MM-4. If no packets are shown the sender has not sent any weather packets the latest 10 day(s).
| Time | Temp. | Humidity | Pressure | Rain* | Wind** | Luminosity | Snow |
|---|---|---|---|---|---|---|---|
| 1777733355 | 26.67° C | 35% | 1014.7 hPa | 0 mm | - | - | - |
| 1777732755 | 27.22° C | 34% | 1014.7 hPa | 0 mm | - | - | - |
| 1777732155 | 27.22° C | 34% | 1014.9 hPa | 0 mm | - | - | - |
| 1777731555 | 27.22° C | 34% | 1015.1 hPa | 0 mm | - | - | - |
| 1777730955 | 26.67° C | 34% | 1015.2 hPa | 0 mm | - | - | - |
| 1777730355 | 26.67° C | 35% | 1015.2 hPa | 0 mm | - | - | - |
| 1777729755 | 26.67° C | 35% | 1015.4 hPa | 0 mm | - | - | - |
| 1777729155 | 26.67° C | 35% | 1015.5 hPa | 0 mm | - | - | - |
| 1777728555 | 26.67° C | 35% | 1015.6 hPa | 0 mm | - | - | - |
| 1777727955 | 26.67° C | 36% | 1015.7 hPa | 0 mm | - | - | - |
| 1777727355 | 26.67° C | 35% | 1015.9 hPa | 0 mm | - | - | - |
| 1777726755 | 26.11° C | 38% | 1015.9 hPa | 0 mm | - | - | - |
| 1777726155 | 26.67° C | 35% | 1016.1 hPa | 0 mm | - | - | - |
| 1777725555 | 26.67° C | 33% | 1016.2 hPa | 0 mm | - | - | - |
| 1777724955 | 26.11° C | 33% | 1016.2 hPa | 0 mm | - | - | - |
| 1777724355 | 26.11° C | 32% | 1016.4 hPa | 0 mm | - | - | - |
| 1777723755 | 26.11° C | 34% | 1016.5 hPa | 0 mm | - | - | - |
| 1777723155 | 26.11° C | 34% | 1016.7 hPa | 0 mm | - | - | - |
| 1777722555 | 25.56° C | 33% | 1016.9 hPa | 0 mm | - | - | - |
| 1777721955 | 26.11° C | 33% | 1017 hPa | 0 mm | - | - | - |
| 1777721355 | 25.56° C | 34% | 1017.1 hPa | 0 mm | - | - | - |
| 1777720755 | 25.56° C | 33% | 1017.1 hPa | 0 mm | - | - | - |
| 1777720155 | 25.56° C | 36% | 1017.2 hPa | 0 mm | - | - | - |
| 1777719555 | 25° C | 37% | 1017.4 hPa | 0 mm | - | - | - |
| 1777718955 | 24.44° C | 36% | 1017.6 hPa | 0 mm | - | - | - |
* Rain latest hour (hover to see other rain measurements)
** Current wind speed in m/s (hover to see current wind gust speed)